map of BTP home
BTP - Airport
Location
City:  Butler, Pennsylvania, United States
Name:Butler County/K W Scholter Field
ICAO:KBTP
IATA:BTP
FAA LID:BTP

Details
Type:Airport (Airfield)
Use:Public/Civil
Latitude:4046'36"N (40.776583)
Longitude:7957'04"W (-79.951082)
Datum:WGS 1984
Elevation:1248 ft (380 m)
Variation:9.40W (WMM2015 magnetic declination)
-0.02 annual change
Runways:1
Longest:4801 × 100 ft (1463 × 30.5 m), paved

Time
Time Zone:UTC-5 (DST-4)
Local Time:

Weather
METAR:KBTP 210556Z AUTO 06003KT 10SM CLR 06/04 A3027 RMK AO2 SLP257 T00610039 10128 20056 51000

Related Locations
Nearby:
Farthest:MQZ: 11488 mi / 18488 km
Margaret River [Margaret River Airport], WA, AU

Find:

   beyond  
but within

Other Information
Maps:
NOTAMs:
Links:
Sources:

  
flag of United States
flag of Pennsylvania
  

Sectional Chart

Flight Planning
at skyvector.com

Satellite Image

Google Maps Satellite view

 

Copyright © 2004-2017 Karl L. Swartz. All rights reserved.
The Great Circle Mapper name and logo are trademarks of the Great Circle Mapper.
All other trademarks mentioned herein belong to their respective owners.
Please see credits for attibutions and further copyright information.

  Follow gcmap on Facebook Follow gcmap on Twitter Follow gcmap on Google+ GCmap on LinkedIn

hCard Microformat

Geo Microformat